Location: Caltech
(34.1382°N, 118.1253°W)
Time: 00:46:26
(UTC-07:00)

Cosmos 2219 Rocket - Visible Passes

Search period start: 02 April 2015 00:00
Search period end: 12 April 2015 00:00
Orbit: 830 x 845 km, 71.0° (Epoch: 31 March)

Date Brightness Start Highest point End Pass type
(mag) Time Alt. Az. Time Alt. Az. Time Alt. Az.
02 Apr 2.7 19:32:07 10° N 19:37:20 39° ENE 19:42:36 10° SE visible
02 Apr 4.3 21:16:41 10° NW 21:21:05 23° WSW 21:25:20 10° SSW visible
03 Apr 4.2 21:00:15 10° NW 21:04:49 25° WSW 21:09:15 10° SSW visible
04 Apr 4.1 20:43:49 10° NW 20:48:33 27° WSW 20:53:10 10° SSW visible
05 Apr 4.0 20:27:24 10° NW 20:32:17 30° WSW 20:37:03 10° SSW visible
06 Apr 4.0 20:11:01 10° NW 20:16:00 33° WSW 20:20:55 10° SSW visible
07 Apr 3.9 19:54:37 10° NW 19:59:44 36° WSW 20:04:46 10° SSW visible
08 Apr 3.8 19:38:15 10° NW 19:43:28 39° WSW 19:48:36 10° S visible
